Hourly Data Report for October 17, 2012

All times are specified in Local Standard Time (LST). Add 1 hour to adjust for Daylight Saving Time where and when it is observed.

ST LEONARD CS
NEW BRUNSWICK

47°09'28.050" N
67°49'55.014" W
245.00 m
810I001
71019
WIY

Download Data

Hourly Data (October 2012)
Hourly Data Report for October 17, 2012
Temp Definition
°C
Dew Point Temp Definition
°C
Rel Hum Definition
%
Wind Dir Definition
10's deg

Wind Spd Definition
km/h
Visibility Definition
km
Stn Press Definition
kPa
Hmdx Definition


Wind Chill Definition


Weather Definition


TIME
00:00 3.2 0.9 85 27 11   97.40     LegendNANA
01:00 2.2 -0.2 84 27 9   97.48     LegendNANA
02:00 1.8 -0.9 82 26 9   97.60     LegendNANA
03:00 1.2 -0.7 87 28 11   97.66     LegendNANA
04:00 1.3 -0.5 88 28 15   97.72     LegendNANA
05:00 0.5 -0.7 92 28 6   97.79     LegendNANA
06:00 0.5 -0.8 91 29 9   97.88     LegendNANA
07:00 0.5 -0.9 90 26 7   97.96     LegendNANA
08:00 1.5 -0.2 88 26 7   98.01     LegendNANA
09:00 2.3 -0.1 84 26 7   98.10     LegendNANA
10:00 3.8 0.1 77 30 13   98.15     LegendNANA
11:00 5.5 0.2 69 31 17   98.16     LegendNANA
12:00 6.7 0.7 66 29 15   98.18     LegendNANA
13:00 7.9 0.5 59 31 19   98.12     LegendNANA
14:00 8.5 0.6 58 29 15   98.12     LegendNANA
15:00 9.2 0.3 54 31 11   98.13     LegendNANA
16:00 9.4 0.4 53 30 6   98.16     LegendNANA
17:00 8.9 0.2 54 32 6   98.25     LegendNANA
18:00 5.8 -0.2 65 33 2   98.32     LegendNANA
19:00 3.3 -0.3 77 34 2   98.39     LegendNANA
20:00 1.3 -1.0 85 2 4   98.46     LegendNANA
21:00 1.4 -1.0 84 31 4   98.50     LegendNANA
22:00 0.6 -1.6 85 1 4   98.54     LegendNANA
23:00 1.0 -1.6 83 1 6   98.53     LegendNANA

Notes on Data Quality.

Legend

  • E = Estimated
  • M = Missing
  • NA = Not Available
  • ‡ = Partner data that is not subject to review by the National Climate Archives
Date modified: